Location: Raven Rock State Park
(35.4652°N, 78.9116°W)
Time: 10:07:51
(UTC-04:00)

Hubble Space Telescope - Visible Passes

Search period start: 20 September 2018 00:00
Search period end: 30 September 2018 00:00
Orbit: 537 x 541 km, 28.5° (Epoch: 19 September)

Date Brightness Start Highest point End Pass type
(mag) Time Alt. Az. Time Alt. Az. Time Alt. Az.
20 Sep 1.9 20:13:08 10° WSW 20:16:45 30° S 20:18:51 19° SE visible
20 Sep 3.8 21:54:06 10° WSW 21:54:11 10° WSW 21:54:11 10° WSW visible
21 Sep 1.9 20:02:40 10° WSW 20:06:19 31° S 20:09:00 15° SE visible
21 Sep 3.5 21:43:46 10° WSW 21:44:20 13° WSW 21:44:20 13° WSW visible
22 Sep 2.0 19:52:13 10° WSW 19:55:52 30° S 19:59:09 12° ESE visible
22 Sep 3.3 21:33:30 10° WSW 21:34:29 14° SW 21:34:29 14° SW visible
23 Sep 2.1 19:41:49 10° WSW 19:45:25 30° S 19:49:02 10° ESE visible
23 Sep 3.2 21:23:18 10° WSW 21:24:39 15° SW 21:24:39 15° SW visible
24 Sep 2.2 19:31:24 10° WSW 19:34:58 28° S 19:38:32 10° SE visible
24 Sep 3.2 21:13:12 10° SW 21:14:51 15° SSW 21:14:51 15° SSW visible
25 Sep 3.2 21:03:18 10° SW 21:05:05 13° SSW 21:05:05 13° SSW visible
26 Sep 3.4 20:54:06 10° SSW 20:54:38 10° SSW 20:55:09 10° SSW visible
